Location: Minneapolis
(44.9800°N, 93.2640°W)
Time: 14:34:13
(UTC-05:00)

ISS - Visible Passes

Search period start: 21 October 2017 00:00
Search period end: 31 October 2017 00:00
Orbit: 401 x 408 km, 51.6° (Epoch: 22 October)

Date Brightness Start Highest point End Pass type
(mag) Time Alt. Az. Time Alt. Az. Time Alt. Az.
27 Oct -0.5 07:05:36 10° SSE 07:06:48 12° SE 07:08:01 10° ESE visible
29 Oct -1.5 06:55:22 10° SSW 06:58:06 25° SE 07:00:50 10° E visible
30 Oct -0.9 06:04:02 10° SSE 06:05:51 14° SE 06:07:41 10° E visible
